[[{"header":{"parameterUnit":"m.s-1","parameterCategory":1,"la1":30.2991,"la2":30.254,"lo1":-89.0895,"lo2":-89.0444,"dy":0.0017,"dx":0.0017,"nx":28,"ny":28,"refTime":"2023-10-15T03:00:00:Z","depth":0,"parameterNumber":2,"parameterNumberName":"U-component_of_WINDS"},"data":[0,0,0,0,0,0,0,0,0,0,0,0,0,0,0,0,0,0,0,0,0,0,0,0,0,0,0,0,0,0,0,0,0,0,0,0,0,0,0,0,0,0,0,0,0,0,0,0,0,0,0,0,0,0,0,0,0,0,2.8093,2.8093,0,2.8118,2.8118,2.8119,2.8065,2.8063,2.8061,2.806,2.8084,2.8087,2.8089,0,0,0,0,0,0,0,0,0,0,0,0,0,2.8,2.8002,2.8093,2.8093,2.8094,2.8118,2.8118,2.8119,2.8065,2.8063,2.8061,2.8059,2.8084,2.8086,2.8089,0,0,0,0,0,0,0,0,0,0,0,0,0,2.8034,2.8002,2.8093,2.807,2.8068,2.8118,2.8118,2.8119,2.8066,2.8063,2.806,2.8058,2.8083,2.8086,2.8089,2.8163,0,0,2.81,2.8101,0,0,0,0,0,0,0,0,2.8032,2.8037,2.8073,2.8072,2.807,2.8086,2.8094,2.8133,2.8066,2.8066,2.806,2.8057,2.8087,2.809,2.81,2.8164,2.8165,2.81,2.8102,2.8104,2.8105,0,0,0,0,0,0,0,2.803,2.8036,2.8103,2.8074,2.8072,2.8059,2.8061,2.8102,2.8091,2.8066,2.8062,2.8066,2.8085,2.8097,2.81,2.8165,2.81,2.8103,2.8105,2.8107,2.8293,2.8296,0,0,0,0,0,0,2.803,2.8034,2.8102,2.8104,2.8044,2.8062,2.8065,2.8083,2.809,2.8089,2.8068,2.8064,2.8092,2.8096,2.8101,2.8189,2.8104,2.8107,2.8109,2.829,2.8294,2.8297,0,0,0,0,0,0,2.8029,2.8037,2.8101,2.8068,2.8075,2.8067,2.8088,2.8085,2.8096,2.8092,2.809,2.8082,2.8091,2.8096,2.8148,2.8189,2.8108,2.8111,2.8287,2.8291,2.8295,2.8365,0,0,0,0,0,0,2.8026,2.8036,2.8064,2.8069,2.8077,2.8148,2.809,2.8087,2.8103,2.8097,2.8104,2.8103,2.8089,2.8144,2.8152,2.8193,2.8114,2.8283,2.8289,2.8294,2.8359,2.8371,2.8382,0,0,0,0,0,2.8023,2.8082,2.8066,2.8074,2.8111,2.815,2.8155,2.8138,2.8106,2.8134,2.8132,2.8103,2.8183,2.8149,2.8158,2.8201,2.828,2.8287,2.8294,2.8354,2.8369,2.8382,0,0,0,0,0,0,2.808,2.8082,2.8064,2.8126,2.8139,2.8141,2.8176,2.8154,2.8175,2.8169,2.8146,2.8148,2.8206,2.8208,2.817,2.8273,2.8227,2.8235,2.827,2.8284,2.8295,2.8294,2.8117,0,0,0,0,0,2.8101,2.8132,2.8132,2.8187,2.8194,2.8184,2.82,2.8186,2.8198,2.8203,2.8204,2.8217,2.8246,2.8264,2.829,2.8359,2.8361,2.8393,2.8404,2.8413,2.8422,2.8461,2.8476,2.8318,2.8318,2.8318,0,0,2.8142,2.8147,2.8168,2.8198,2.8206,2.8241,2.8189,2.8226,2.8252,2.8209,2.8259,2.8261,2.8273,2.8335,2.8362,2.8339,2.8466,2.8422,2.8429,2.8432,2.8469,2.8484,2.8497,2.8323,2.8322,2.8321,0,0,2.8235,2.8241,2.8289,2.8299,2.8313,2.8306,2.8318,2.8324,2.8324,2.8374,2.8343,2.8373,2.8422,2.8433,2.8445,2.8546,2.8521,2.8555,2.8614,2.8653,2.8666,2.8676,2.8715,2.8728,2.8563,2.8563,2.8563,0,2.8285,2.8335,2.8316,2.8357,2.8372,2.8336,2.8385,2.8395,2.8416,2.8428,2.8402,2.8464,2.847,2.8535,2.856,2.857,2.8584,2.8554,2.8665,2.8676,2.8686,2.8722,2.8736,2.8567,2.8567,2.8566,2.8566,0,2.8397,2.8433,2.847,2.8493,2.8512,2.8556,2.8545,2.8566,2.8551,2.8548,2.8601,2.8607,2.8635,2.8649,2.8633,2.8713,2.8698,2.8669,2.8622,2.8705,2.8739,2.8753,2.8573,2.8572,2.857,2.8569,0,0,2.8527,2.854,2.8554,2.8566,2.8579,2.8606,2.865,2.8677,2.8698,2.8714,2.8751,2.8794,2.8768,2.8782,2.8768,2.8802,2.8885,2.8769,2.8769,2.8792,2.8975,2.8998,2.9015,2.8868,2.887,2.8872,2.8975,0,2.8621,2.8697,2.8682,2.8756,2.879,2.8758,2.8796,2.8809,2.8807,2.8836,2.8834,2.8866,2.8828,2.8837,2.8868,2.8868,2.8921,2.886,2.8904,2.8905,2.8903,2.9032,2.9056,2.9152,2.8987,2.899,2.8991,0,2.8741,2.8764,2.8842,2.8852,2.8866,2.8901,2.8926,2.8954,2.8968,2.8965,2.8982,2.8962,2.9007,2.8959,2.9021,2.898,2.8997,2.9,2.9003,2.9008,2.8954,2.9042,2.9182,2.9197,2.9011,2.901,2.9008,0,2.8831,2.888,2.8934,2.8944,2.8957,2.8983,2.8989,2.9001,2.902,2.9042,2.9055,2.9082,2.9097,2.9119,2.9108,2.9073,2.9173,2.9123,2.9173,2.9173,2.9196,2.9195,2.9343,2.9204,2.9204,2.9204,2.9203,0,2.8938,2.8988,2.8975,2.9008,2.9064,2.9046,2.9102,2.9104,2.9116,2.915,2.9122,2.9155,2.9137,2.9169,2.916,2.9215,2.9221,2.9221,2.9218,2.9224,2.9225,2.9236,2.923,2.9208,2.9207,2.9206,2.9205,0,2.9048,2.9041,2.9098,2.9106,2.911,2.915,2.9158,2.9189,2.9186,2.923,2.9239,2.9235,2.9271,2.9261,2.93,2.9294,2.9364,2.9352,2.9359,2.9357,2.9408,2.9404,2.957,2.9592,2.9437,2.9439,2.944,0,2.9118,2.9156,2.9169,2.919,2.9199,2.9233,2.9253,2.9238,2.9259,2.9281,2.931,2.9344,2.937,2.9429,2.943,2.946,2.945,2.9506,2.9454,2.946,2.9453,2.9452,2.9457,2.9517,2.9518,2.952,2.9521,0,2.9244,2.924,2.9269,2.9298,2.9322,2.9344,2.9363,2.9382,2.9369,2.9395,2.9432,2.9452,2.9493,2.9528,2.9556,2.9563,2.9541,2.9537,2.9551,2.9558,2.9562,2.9563,2.939,2.9534,2.9532,2.9531,2.9531,2.953,2.9338,2.9371,2.9386,2.942,2.9434,2.9453,2.9484,2.9486,2.9516,2.9549,2.9538,2.9581,2.9597,2.9633,2.9644,2.9678,2.9657,2.9675,2.9681,2.9686,2.9694,2.9555,2.9682,2.9682,2.9682,2.9681,2.9681,0,2.9465,2.9473,2.9505,2.9534,2.9561,2.9538,2.9559,2.9583,2.9622,2.9638,2.9666,2.9709,2.9743,2.9747,2.978,2.9806,2.9797,2.9816,2.9814,2.9817,2.9709,2.9695,2.9823,2.9823,2.9823,2.9823,2.9823,2.9823,2.9534,2.959,2.9587,2.965,2.9658,2.9701,2.9715,2.9733,2.9747,2.9797,2.9826,2.9828,2.984,2.9874,2.9905,2.9905,2.9919,2.9942,2.9939,2.9838,2.9824,2.9811,2.9798,2.9945,2.9945,3.0044,3.0045,3.0046]},{"header":{"parameterUnit":"m.s-1","parameterCategory":1,"la1":30.2991,"la2":30.254,"lo1":-89.0895,"lo2":-89.0444,"dy":0.0017,"dx":0.0017,"nx":28,"ny":28,"refTime":"2023-10-15T03:00:00:Z","depth":0,"parameterNumber":3,"parameterNumberName":"V-component_of_WINDS"},"data":[0,0,0,0,0,0,0,0,0,0,0,0,0,0,0,0,0,0,0,0,0,0,0,0,0,0,0,0,0,0,0,0,0,0,0,0,0,0,0,0,0,0,0,0,0,0,0,0,0,0,0,0,0,0,0,0,0,0,-2.6075,-2.6076,0,-2.6156,-2.6157,-2.6158,-2.6162,-2.6161,-2.616,-2.6159,-2.6239,-2.6242,-2.6245,0,0,0,0,0,0,0,0,0,0,0,0,0,-2.5922,-2.5925,-2.6075,-2.6076,-2.6077,-2.6156,-2.6157,-2.6158,-2.6162,-2.6161,-2.616,-2.6159,-2.6238,-2.6242,-2.6246,0,0,0,0,0,0,0,0,0,0,0,0,0,-2.5994,-2.5926,-2.6075,-2.6089,-2.6091,-2.6156,-2.6157,-2.6158,-2.6162,-2.6161,-2.616,-2.6158,-2.6237,-2.6242,-2.6246,-2.6302,0,0,-2.626,-2.6262,0,0,0,0,0,0,0,0,-2.599,-2.6,-2.6086,-2.6088,-2.609,-2.6148,-2.6133,-2.6207,-2.6163,-2.6135,-2.6159,-2.6158,-2.621,-2.6216,-2.6235,-2.6306,-2.6309,-2.626,-2.6263,-2.6265,-2.6266,0,0,0,0,0,0,0,-2.5985,-2.5996,-2.6107,-2.6087,-2.609,-2.609,-2.6099,-2.6147,-2.6179,-2.6137,-2.6138,-2.6148,-2.6211,-2.623,-2.6237,-2.6311,-2.626,-2.6264,-2.6267,-2.6269,-2.6433,-2.6435,0,0,0,0,0,0,-2.5978,-2.5992,-2.6104,-2.6109,-2.6036,-2.6094,-2.6104,-2.613,-2.6179,-2.6185,-2.6149,-2.6147,-2.6223,-2.6231,-2.6239,-2.6309,-2.6265,-2.6269,-2.6272,-2.6432,-2.6434,-2.6435,0,0,0,0,0,0,-2.5974,-2.5988,-2.6101,-2.6051,-2.6066,-2.6098,-2.6128,-2.6133,-2.6152,-2.6187,-2.6193,-2.6163,-2.6223,-2.6233,-2.6287,-2.6312,-2.6271,-2.6275,-2.643,-2.6432,-2.6434,-2.6448,0,0,0,0,0,0,-2.597,-2.5987,-2.6008,-2.6052,-2.6068,-2.6148,-2.613,-2.6135,-2.6161,-2.616,-2.6202,-2.6208,-2.6222,-2.628,-2.6292,-2.6317,-2.6279,-2.6427,-2.6431,-2.6434,-2.6445,-2.645,-2.6455,0,0,0,0,0,-2.5965,-2.6008,-2.6009,-2.6023,-2.6096,-2.6149,-2.6159,-2.6175,-2.6162,-2.6185,-2.6207,-2.6206,-2.6308,-2.6286,-2.6298,-2.6326,-2.6426,-2.643,-2.6433,-2.6443,-2.6449,-2.6455,0,0,0,0,0,0,-2.5965,-2.6014,-2.6016,-2.6075,-2.6108,-2.615,-2.6178,-2.6181,-2.6218,-2.6215,-2.6234,-2.6243,-2.6297,-2.6317,-2.6292,-2.6383,-2.6365,-2.6372,-2.6368,-2.6375,-2.6379,-2.6373,-2.6283,0,0,0,0,0,-2.5973,-2.6012,-2.6052,-2.61,-2.6117,-2.6145,-2.6168,-2.6179,-2.6213,-2.6227,-2.6254,-2.6287,-2.6326,-2.6352,-2.639,-2.6449,-2.6458,-2.6474,-2.6479,-2.6482,-2.6487,-2.6521,-2.6528,-2.6448,-2.6448,-2.6448,0,0,-2.5987,-2.6019,-2.6042,-2.6101,-2.6128,-2.6168,-2.6156,-2.6199,-2.6229,-2.6233,-2.6286,-2.6307,-2.6345,-2.6402,-2.6429,-2.642,-2.6512,-2.6487,-2.649,-2.6493,-2.6526,-2.6533,-2.654,-2.645,-2.645,-2.6449,0,0,-2.6035,-2.6063,-2.6106,-2.6134,-2.6176,-2.6194,-2.6205,-2.6247,-2.6261,-2.6315,-2.6319,-2.6355,-2.6422,-2.645,-2.6473,-2.6533,-2.6534,-2.6545,-2.6569,-2.6602,-2.6608,-2.6614,-2.6636,-2.6643,-2.655,-2.655,-2.655,0,-2.6047,-2.6109,-2.6128,-2.6171,-2.6197,-2.6205,-2.6249,-2.6275,-2.6326,-2.6344,-2.6334,-2.642,-2.6446,-2.651,-2.6525,-2.6543,-2.6556,-2.654,-2.6606,-2.6612,-2.6618,-2.6638,-2.6646,-2.6551,-2.6551,-2.6551,-2.6551,0,-2.6123,-2.6165,-2.6195,-2.6247,-2.6276,-2.6319,-2.6345,-2.6372,-2.6381,-2.64,-2.6455,-2.6488,-2.6533,-2.6549,-2.6557,-2.6615,-2.6608,-2.6602,-2.6584,-2.6626,-2.6646,-2.6654,-2.6553,-2.6552,-2.6552,-2.6552,0,0,-2.617,-2.6234,-2.6244,-2.6268,-2.6316,-2.6349,-2.6393,-2.6439,-2.6462,-2.6498,-2.6535,-2.6593,-2.6589,-2.6615,-2.6626,-2.6654,-2.6701,-2.6645,-2.6646,-2.6654,-2.6767,-2.677,-2.6779,-2.6702,-2.6704,-2.6705,-2.6763,0,-2.6223,-2.6303,-2.6322,-2.639,-2.643,-2.6439,-2.6477,-2.6511,-2.6531,-2.6567,-2.6589,-2.663,-2.6621,-2.6637,-2.6665,-2.6689,-2.6723,-2.6685,-2.6736,-2.6738,-2.6726,-2.679,-2.6793,-2.6847,-2.6771,-2.6773,-2.6774,0,-2.6294,-2.6334,-2.6406,-2.645,-2.6467,-2.6502,-2.6546,-2.6581,-2.6619,-2.6632,-2.6662,-2.6671,-2.6717,-2.6698,-2.6762,-2.6736,-2.6758,-2.6773,-2.6776,-2.678,-2.6758,-2.6795,-2.6864,-2.6872,-2.6786,-2.6785,-2.6784,0,-2.6322,-2.6393,-2.6446,-2.6466,-2.6518,-2.6542,-2.6565,-2.6602,-2.6629,-2.6668,-2.6685,-2.6728,-2.6751,-2.6785,-2.6805,-2.6789,-2.6868,-2.685,-2.6879,-2.6878,-2.6894,-2.6892,-2.6967,-2.691,-2.6909,-2.6909,-2.6909,0,-2.6378,-2.6422,-2.6459,-2.6491,-2.6541,-2.6563,-2.6611,-2.6634,-2.6668,-2.6704,-2.6715,-2.6749,-2.6774,-2.6812,-2.6828,-2.6879,-2.6889,-2.6901,-2.6904,-2.6899,-2.6898,-2.6913,-2.691,-2.6912,-2.6911,-2.6911,-2.691,0,-2.6417,-2.6443,-2.6501,-2.6547,-2.656,-2.6594,-2.6633,-2.6665,-2.6687,-2.6733,-2.6745,-2.6778,-2.6823,-2.6848,-2.6903,-2.6915,-2.6971,-2.6973,-2.6959,-2.696,-2.6988,-2.6984,-2.7074,-2.7087,-2.7022,-2.7022,-2.7023,0,-2.645,-2.6484,-2.6535,-2.6561,-2.6584,-2.6626,-2.6654,-2.6678,-2.6706,-2.6754,-2.678,-2.6826,-2.6864,-2.6935,-2.6964,-2.7007,-2.701,-2.7038,-2.7016,-2.701,-2.701,-2.7007,-2.7011,-2.7041,-2.7042,-2.7042,-2.7043,0,-2.6507,-2.6519,-2.6559,-2.6605,-2.6638,-2.6675,-2.6711,-2.6732,-2.6761,-2.6793,-2.684,-2.687,-2.6928,-2.6974,-2.702,-2.7043,-2.7048,-2.705,-2.7059,-2.7054,-2.7044,-2.7049,-2.6969,-2.7047,-2.7047,-2.7047,-2.7046,-2.7046,-2.6544,-2.6575,-2.6616,-2.6661,-2.6691,-2.6725,-2.6757,-2.6784,-2.6824,-2.6874,-2.6885,-2.6935,-2.6974,-2.7036,-2.7061,-2.71,-2.7094,-2.7107,-2.711,-2.7113,-2.7114,-2.7039,-2.7108,-2.7108,-2.7108,-2.7108,-2.7108,0,-2.6601,-2.6628,-2.6669,-2.672,-2.6756,-2.676,-2.6801,-2.683,-2.6874,-2.691,-2.6948,-2.7002,-2.7047,-2.708,-2.7126,-2.7151,-2.7155,-2.7162,-2.716,-2.7165,-2.7116,-2.7104,-2.7159,-2.7159,-2.7159,-2.7159,-2.7159,-2.7159,-2.6634,-2.6688,-2.6705,-2.6774,-2.68,-2.685,-2.6873,-2.6905,-2.6934,-2.6995,-2.7033,-2.7055,-2.709,-2.7139,-2.718,-2.7189,-2.7205,-2.7212,-2.722,-2.7174,-2.7169,-2.7163,-2.7152,-2.7215,-2.7215,-2.7266,-2.7266,-2.7267]}]]